Regional Weather Roundup
Issued by NWS

Home | Current Version | Previous Version | Text Only | Print | Product List | Glossary Off
Versions: 1 2 3 4 5 6 7 8 9 10 11 12 13 14 15 16 17 18 19 20 21 22 23 24 25 26 27 28 29 30 31 32 33 34 35 36 37 38 39 40 41 42 43 44 45 46 47 48 49 50

000
ASUS45 KBOI 301210
RWRID

IDAHO REGIONAL WEATHER ROUNDUP
NATIONAL WEATHER SERVICE BOISE ID
600 AM MDT THU JUL 30 2015

NOTE: "FAIR" INDICATES FEW OR NO CLOUDS BELOW 12000 FEET
WITH NO SIGNIFICANT WEATHER AND/OR OBSTRUCTIONS TO VISIBILITY

IDZ012-014-301300-
SOUTHWEST IDAHO


CITY           SKY/WX    TMP DP  RH WIND       PRES   REMARKS
BOISE          CLEAR     63  37  38 SE8       30.18S
CALDWELL       CLEAR     52  37  58 CALM      30.19R
MOUNTAIN HOME  CLEAR     53  32  45 E7        30.20R
$$

IDZ016-017-301300-
SOUTHCENTRAL IDAHO


CITY           SKY/WX    TMP DP  RH WIND       PRES   REMARKS
BURLEY         CLEAR     48  44  86 NW3       30.26R
JEROME         CLEAR     55  36  48 E8        30.26S
TWIN FALLS     CLEAR     59  34  39 S12       30.24S
$$

IDZ019>023-301300-
SOUTHEAST IDAHO


CITY           SKY/WX    TMP DP  RH WIND       PRES   REMARKS
IDAHO FALLS    CLEAR     42  39  89 N6        30.33R
POCATELLO      CLEAR     45  40  82 N5        30.31S
REXBURG        CLEAR     44  40  85 NE3       30.35R
$$

IDZ006-010-011-018-031-032-301300-
CENTRAL IDAHO MOUNTAINS


CITY           SKY/WX    TMP DP  RH WIND       PRES   REMARKS
MCCALL         CLEAR     46  37  71 CALM      30.32R
HAILEY         CLEAR     50  34  53 NW10      30.37S
STANLEY          N/A     33  29  85 S3        30.45R
SALMON         CLEAR     48  43  81 SE3       30.33R
CHALLIS        CLEAR     52  40  63 CALM      30.36R
$$

IDZ002-004-006-007-026-301300-
NORTHERN IDAHO


CITY           SKY/WX    TMP DP  RH WIND       PRES   REMARKS
LEWISTON       CLEAR     65  41  41 E5        30.14R
LOWELL           N/A     53  48  83 CALM      30.26R
COEUR D`ALENE  CLEAR     52  37  58 NE7       30.17S
MULLAN PASS    CLEAR     60  29  30 S5        30.37S
$$



USA.gov is the U.S. government's official web portal to all federal, state and local government web resources and services.